Wetterdaten: Sonntag, 15.02.2015
Datum Zeit Temp. A. Feuchte A. Luftdruck Regen Wind Richtung Richtung Sonnenschein ET UV Solar Taupunkt Windchill Windben Empfang
15.02.2015 00:00 -4,8 C 80 % 1012,4 hPa 0,0 l/m 0,0 km/h (0 Bft) S-SW 200 0 min 0,000 mm 0,0 UV-I 0 W/m -7,7 C -4,8 C 0,0 km/h (0 Bft) 0,00 %
15.02.2015 00:15 -4,7 C 80 % 1012,1 hPa 0,0 l/m 0,0 km/h (0 Bft) S-SW 194 0 min 0,000 mm 0,0 UV-I 0 W/m -7,6 C -4,7 C 0,0 km/h (0 Bft) 0,00 %
15.02.2015 00:30 -4,6 C 80 % 1012,2 hPa 0,0 l/m 0,0 km/h (0 Bft) W-SW 243 0 min 0,000 mm 0,0 UV-I 0 W/m -7,5 C -4,6 C 0,0 km/h (0 Bft) 0,00 %
15.02.2015 00:45 -4,3 C 80 % 1012,0 hPa 0,0 l/m 0,0 km/h (0 Bft) S 188 0 min 0,000 mm 0,0 UV-I 0 W/m -7,2 C -4,3 C 0,0 km/h (0 Bft) 0,00 %
15.02.2015 01:00 -4,2 C 80 % 1011,8 hPa 0,0 l/m 0,0 km/h (0 Bft) S 189 0 min 0,000 mm 0,0 UV-I 0 W/m -7,1 C -4,2 C 0,0 km/h (0 Bft) 0,00 %
15.02.2015 01:15 -4,1 C 80 % 1011,8 hPa 0,0 l/m 0,0 km/h (0 Bft) S-SW 210 0 min 0,000 mm 0,0 UV-I 0 W/m -7,0 C -4,1 C 0,0 km/h (0 Bft) 0,00 %
15.02.2015 01:30 -3,9 C 80 % 1011,8 hPa 0,0 l/m 0,0 km/h (0 Bft) S-SW 206 0 min 0,000 mm 0,0 UV-I 0 W/m -6,8 C -3,9 C 0,0 km/h (0 Bft) 0,00 %
15.02.2015 01:45 -3,7 C 80 % 1011,7 hPa 0,0 l/m 0,0 km/h (0 Bft) S-SW 200 0 min 0,000 mm 0,0 UV-I 0 W/m -6,6 C -3,7 C 0,0 km/h (0 Bft) 0,00 %
15.02.2015 02:00 -3,6 C 79 % 1011,9 hPa 0,0 l/m 0,0 km/h (0 Bft) S-SW 203 0 min 0,000 mm 0,0 UV-I 0 W/m -6,7 C -3,6 C 0,0 km/h (0 Bft) 0,00 %
15.02.2015 02:15 -3,4 C 79 % 1011,9 hPa 0,0 l/m 0,0 km/h (0 Bft) S-SW 208 0 min 0,000 mm 0,0 UV-I 0 W/m -6,5 C -3,4 C 0,0 km/h (0 Bft) 0,00 %
15.02.2015 02:30 -3,3 C 79 % 1011,7 hPa 0,0 l/m 0,0 km/h (0 Bft) S-SW 201 0 min 0,000 mm 0,0 UV-I 0 W/m -6,4 C -3,3 C 0,0 km/h (0 Bft) 0,00 %
15.02.2015 02:45 -3,1 C 79 % 1011,6 hPa 0,0 l/m 0,0 km/h (0 Bft) S 184 0 min 0,000 mm 0,0 UV-I 0 W/m -6,2 C -3,1 C 0,0 km/h (0 Bft) 0,00 %
15.02.2015 03:00 -2,8 C 80 % 1011,5 hPa 0,0 l/m 0,0 km/h (0 Bft) S-SW 208 0 min 0,000 mm 0,0 UV-I 0 W/m -5,8 C -2,8 C 0,0 km/h (0 Bft) 0,00 %
15.02.2015 03:15 -2,6 C 84 % 1011,4 hPa 0,0 l/m 0,0 km/h (0 Bft) SO 129 0 min 0,000 mm 0,0 UV-I 0 W/m -4,9 C -2,6 C 0,0 km/h (0 Bft) 0,00 %
15.02.2015 03:30 -2,4 C 84 % 1011,5 hPa 0,0 l/m 0,4 km/h (0 Bft) S-SO 156 0 min 0,000 mm 0,0 UV-I 0 W/m -4,7 C -2,4 C 4,0 km/h (1 Bft) 0,00 %
15.02.2015 03:45 -2,2 C 84 % 1011,3 hPa 0,0 l/m 0,0 km/h (0 Bft) SO 141 0 min 0,000 mm 0,0 UV-I 0 W/m -4,5 C -2,2 C 0,0 km/h (0 Bft) 0,00 %
15.02.2015 04:00 -2,0 C 84 % 1011,3 hPa 0,0 l/m 0,0 km/h (0 Bft) SO 133 0 min 0,000 mm 0,0 UV-I 0 W/m -4,3 C -2,0 C 0,0 km/h (0 Bft) 0,00 %
15.02.2015 04:15 -1,7 C 84 % 1011,6 hPa 0,0 l/m 5,8 km/h (2 Bft) O 101 0 min 0,000 mm 0,0 UV-I 0 W/m -4,0 C -1,7 C 11,9 km/h (2 Bft) 0,00 %
15.02.2015 04:30 -1,4 C 84 % 1011,3 hPa 0,0 l/m 2,9 km/h (1 Bft) O-SO 105 0 min 0,000 mm 0,0 UV-I 0 W/m -3,7 C -1,4 C 4,0 km/h (1 Bft) 0,00 %
15.02.2015 04:45 -1,3 C 83 % 1011,4 hPa 0,0 l/m 0,7 km/h (0 Bft) N-NO 24 0 min 0,000 mm 0,0 UV-I 0 W/m -3,8 C -1,3 C 4,0 km/h (1 Bft) 0,00 %
15.02.2015 05:00 -1,9 C 84 % 1011,8 hPa 0,0 l/m 0,0 km/h (0 Bft) N-NW 339 0 min 0,000 mm 0,0 UV-I 0 W/m -4,2 C -1,9 C 0,0 km/h (0 Bft) 0,00 %
15.02.2015 05:15 -2,2 C 84 % 1011,7 hPa 0,0 l/m 0,0 km/h (0 Bft) O 96 0 min 0,000 mm 0,0 UV-I 0 W/m -4,5 C -2,2 C 0,0 km/h (0 Bft) 0,00 %
15.02.2015 05:30 -2,2 C 84 % 1011,8 hPa 0,0 l/m 0,0 km/h (0 Bft) O-NO 64 0 min 0,000 mm 0,0 UV-I 0 W/m -4,5 C -2,2 C 0,0 km/h (0 Bft) 0,00 %
15.02.2015 05:45 -2,4 C 84 % 1011,9 hPa 0,0 l/m 0,0 km/h (0 Bft) W-SW 255 0 min 0,000 mm 0,0 UV-I 0 W/m -4,7 C -2,4 C 0,0 km/h (0 Bft) 0,00 %
15.02.2015 06:00 -2,5 C 80 % 1011,9 hPa 0,0 l/m 0,0 km/h (0 Bft) S-SW 206 0 min 0,000 mm 0,0 UV-I 0 W/m -5,5 C -2,5 C 0,0 km/h (0 Bft) 0,00 %
15.02.2015 06:15 -2,6 C 80 % 1012,0 hPa 0,0 l/m 0,0 km/h (0 Bft) O-NO 68 0 min 0,000 mm 0,0 UV-I 0 W/m -5,6 C -2,6 C 0,0 km/h (0 Bft) 0,00 %
15.02.2015 06:30 -2,6 C 80 % 1011,8 hPa 0,0 l/m 0,0 km/h (0 Bft) S 181 0 min 0,000 mm 0,0 UV-I 0 W/m -5,6 C -2,6 C 0,0 km/h (0 Bft) 0,00 %
15.02.2015 06:45 -2,7 C 79 % 1012,2 hPa 0,0 l/m 0,0 km/h (0 Bft) S 180 0 min 0,000 mm 0,0 UV-I 0 W/m -5,8 C -2,7 C 0,0 km/h (0 Bft) 0,00 %
15.02.2015 07:00 -2,6 C 84 % 1012,1 hPa 0,0 l/m 0,0 km/h (0 Bft) S 177 0 min 0,000 mm 0,0 UV-I 0 W/m -4,9 C -2,6 C 0,0 km/h (0 Bft) 0,00 %
15.02.2015 07:15 -2,3 C 84 % 1012,0 hPa 0,0 l/m 0,0 km/h (0 Bft) O 86 0 min 0,000 mm 0,0 UV-I 0 W/m -4,6 C -2,3 C 0,0 km/h (0 Bft) 0,00 %
15.02.2015 07:30 -1,8 C 84 % 1012,1 hPa 0,0 l/m 0,0 km/h (0 Bft) NO 49 0 min 0,000 mm 0,0 UV-I 0 W/m -4,1 C -1,8 C 0,0 km/h (0 Bft) 0,00 %
15.02.2015 07:45 -1,6 C 84 % 1012,0 hPa 0,0 l/m 1,8 km/h (1 Bft) O-SO 105 0 min 0,000 mm 0,0 UV-I 4 W/m -3,9 C -1,6 C 4,0 km/h (1 Bft) 0,00 %
15.02.2015 08:00 -1,4 C 83 % 1012,1 hPa 0,0 l/m 4,0 km/h (1 Bft) O-SO 109 0 min 0,000 mm 0,0 UV-I 16 W/m -3,9 C -1,4 C 4,0 km/h (1 Bft) 0,00 %
15.02.2015 08:15 -1,3 C 83 % 1012,3 hPa 0,0 l/m 7,2 km/h (2 Bft) O-SO 110 0 min 0,000 mm 0,0 UV-I 35 W/m -3,8 C -2,2 C 11,9 km/h (2 Bft) 0,00 %
15.02.2015 08:30 -1,2 C 83 % 1012,5 hPa 0,0 l/m 0,7 km/h (0 Bft) O 88 0 min 0,000 mm 0,0 UV-I 36 W/m -3,7 C -1,2 C 4,0 km/h (1 Bft) 0,00 %
15.02.2015 08:45 -1,1 C 83 % 1012,5 hPa 0,0 l/m 0,0 km/h (0 Bft) S-SO 150 0 min 0,000 mm 1,0 UV-I 42 W/m -3,6 C -1,1 C 0,0 km/h (0 Bft) 0,00 %
15.02.2015 09:00 -1,0 C 83 % 1012,5 hPa 0,0 l/m 5,4 km/h (1 Bft) O 95 0 min 0,000 mm 1,0 UV-I 56 W/m -3,5 C -1,0 C 7,9 km/h (2 Bft) 0,00 %
15.02.2015 09:15 -0,8 C 83 % 1012,6 hPa 0,0 l/m 2,2 km/h (1 Bft) O 92 0 min 0,000 mm 1,0 UV-I 71 W/m -3,3 C -0,8 C 4,0 km/h (1 Bft) 0,00 %
15.02.2015 09:30 -0,6 C 82 % 1012,7 hPa 0,0 l/m 3,2 km/h (1 Bft) O-SO 109 0 min 0,000 mm 1,0 UV-I 89 W/m -3,3 C -0,6 C 4,0 km/h (1 Bft) 0,00 %
15.02.2015 09:45 -0,5 C 81 % 1012,7 hPa 0,0 l/m 0,7 km/h (0 Bft) O-NO 65 0 min 0,000 mm 1,0 UV-I 94 W/m -3,3 C -0,5 C 4,0 km/h (1 Bft) 0,00 %
15.02.2015 10:00 -0,4 C 80 % 1012,7 hPa 0,0 l/m 3,2 km/h (1 Bft) O 99 0 min 0,000 mm 1,0 UV-I 127 W/m -3,4 C -0,4 C 7,9 km/h (2 Bft) 0,00 %
15.02.2015 10:15 -0,2 C 80 % 1012,7 hPa 0,0 l/m 4,0 km/h (1 Bft) O-SO 117 0 min 0,000 mm 1,0 UV-I 123 W/m -3,2 C -0,2 C 7,9 km/h (2 Bft) 0,00 %
15.02.2015 10:30 -0,1 C 80 % 1012,7 hPa 0,0 l/m 3,2 km/h (1 Bft) O-SO 105 0 min 0,000 mm 1,0 UV-I 136 W/m -3,1 C -0,1 C 4,0 km/h (1 Bft) 0,00 %
15.02.2015 10:45 0,3 C 79 % 1012,6 hPa 0,0 l/m 4,0 km/h (1 Bft) O-SO 105 0 min 0,000 mm 1,0 UV-I 142 W/m -2,9 C 0,3 C 4,0 km/h (1 Bft) 0,00 %
15.02.2015 11:00 0,5 C 77 % 1011,5 hPa 0,0 l/m 0,7 km/h (0 Bft) O-SO 105 0 min 0,000 mm 2,0 UV-I 178 W/m -3,1 C 0,5 C 4,0 km/h (1 Bft) 0,00 %
15.02.2015 11:15 0,7 C 76 % 1011,5 hPa 0,0 l/m 5,8 km/h (2 Bft) O-SO 114 0 min 0,000 mm 2,0 UV-I 168 W/m -3,0 C 0,7 C 7,9 km/h (2 Bft) 0,00 %
15.02.2015 11:30 0,8 C 76 % 1011,6 hPa 0,0 l/m 7,2 km/h (2 Bft) O-NO 75 0 min 0,000 mm 2,0 UV-I 188 W/m -2,9 C -0,0 C 11,9 km/h (2 Bft) 0,00 %
15.02.2015 11:45 1,4 C 73 % 1011,2 hPa 0,0 l/m 10,4 km/h (2 Bft) O 101 0 min 0,000 mm 2,0 UV-I 215 W/m -2,9 C -2,2 C 11,9 km/h (2 Bft) 0,00 %
15.02.2015 12:00 1,7 C 71 % 1010,9 hPa 0,0 l/m 9,7 km/h (2 Bft) O-SO 112 0 min 0,000 mm 2,0 UV-I 234 W/m -3,0 C -1,3 C 11,9 km/h (2 Bft) 0,00 %
15.02.2015 12:15 1,7 C 70 % 1010,8 hPa 0,0 l/m 17,3 km/h (3 Bft) O 85 0 min 0,000 mm 2,0 UV-I 223 W/m -3,2 C -6,2 C 28,1 km/h (4 Bft) 0,00 %
15.02.2015 12:30 1,8 C 70 % 1010,9 hPa 0,0 l/m 9,0 km/h (2 Bft) S-SO 157 0 min 0,000 mm 2,0 UV-I 243 W/m -3,1 C -0,6 C 11,9 km/h (2 Bft) 0,00 %
15.02.2015 12:45 1,9 C 69 % 1010,8 hPa 0,0 l/m 14,0 km/h (3 Bft) O-SO 106 0 min 0,000 mm 2,0 UV-I 236 W/m -3,2 C -4,1 C 19,8 km/h (3 Bft) 0,00 %
15.02.2015 13:00 1,9 C 70 % 1010,9 hPa 0,0 l/m 2,9 km/h (1 Bft) N-NO 28 0 min 0,000 mm 2,0 UV-I 191 W/m -3,0 C 1,9 C 4,0 km/h (1 Bft) 0,00 %
15.02.2015 13:15 2,1 C 69 % 1010,7 hPa 0,0 l/m 5,4 km/h (1 Bft) S-SO 147 0 min 0,000 mm 2,0 UV-I 202 W/m -3,0 C 2,1 C 7,9 km/h (2 Bft) 0,00 %
15.02.2015 13:30 2,1 C 69 % 1010,7 hPa 0,0 l/m 10,4 km/h (2 Bft) O-SO 108 0 min 0,000 mm 2,0 UV-I 162 W/m -3,0 C -1,4 C 11,9 km/h (2 Bft) 0,00 %
15.02.2015 13:45 2,2 C 69 % 1010,5 hPa 0,0 l/m 6,8 km/h (2 Bft) SO 130 0 min 0,000 mm 2,0 UV-I 149 W/m -2,9 C 1,8 C 11,9 km/h (2 Bft) 0,00 %
15.02.2015 14:00 2,2 C 69 % 1010,5 hPa 0,0 l/m 7,9 km/h (2 Bft) S-SW 192 0 min 0,000 mm 2,0 UV-I 129 W/m -2,9 C 0,8 C 15,8 km/h (3 Bft) 0,00 %
15.02.2015 14:15 2,3 C 69 % 1010,4 hPa 0,0 l/m 9,0 km/h (2 Bft) O-SO 115 0 min 0,000 mm 2,0 UV-I 130 W/m -2,8 C -0,1 C 15,8 km/h (3 Bft) 0,00 %
15.02.2015 14:30 2,4 C 73 % 1010,6 hPa 0,0 l/m 5,4 km/h (1 Bft) SO 125 0 min 0,000 mm 2,0 UV-I 128 W/m -1,9 C 2,4 C 11,9 km/h (2 Bft) 0,00 %
15.02.2015 14:45 2,6 C 73 % 1010,3 hPa 0,0 l/m 1,8 km/h (1 Bft) W-SW 255 0 min 0,000 mm 2,0 UV-I 123 W/m -1,7 C 2,6 C 4,0 km/h (1 Bft) 0,00 %
15.02.2015 15:00 2,7 C 73 % 1010,4 hPa 0,0 l/m 9,0 km/h (2 Bft) O 87 0 min 0,000 mm 1,0 UV-I 118 W/m -1,6 C 0,3 C 11,9 km/h (2 Bft) 0,00 %
15.02.2015 15:15 2,8 C 74 % 1010,3 hPa 0,0 l/m 15,8 km/h (3 Bft) O-SO 108 0 min 0,000 mm 1,0 UV-I 116 W/m -1,4 C -4,0 C 19,8 km/h (3 Bft) 0,00 %
15.02.2015 15:30 3,0 C 73 % 1010,5 hPa 0,0 l/m 2,9 km/h (1 Bft) O-NO 74 0 min 0,000 mm 1,0 UV-I 111 W/m -1,4 C 3,0 C 4,0 km/h (1 Bft) 0,00 %
15.02.2015 15:45 3,1 C 74 % 1010,6 hPa 0,0 l/m 11,5 km/h (2 Bft) O 90 0 min 0,000 mm 1,0 UV-I 105 W/m -1,1 C -1,1 C 15,8 km/h (3 Bft) 0,00 %
15.02.2015 16:00 3,2 C 74 % 1010,5 hPa 0,0 l/m 4,3 km/h (1 Bft) O-SO 103 0 min 0,000 mm 1,0 UV-I 96 W/m -1,0 C 3,2 C 7,9 km/h (2 Bft) 0,00 %
15.02.2015 16:15 3,2 C 74 % 1010,8 hPa 0,0 l/m 5,4 km/h (1 Bft) O-SO 117 0 min 0,000 mm 1,0 UV-I 85 W/m -1,0 C 3,2 C 7,9 km/h (2 Bft) 0,00 %
15.02.2015 16:30 3,1 C 74 % 1010,9 hPa 0,0 l/m 4,3 km/h (1 Bft) O 100 15 min 0,000 mm 1,0 UV-I 104 W/m -1,1 C 3,1 C 7,9 km/h (2 Bft) 0,00 %
15.02.2015 16:45 3,2 C 74 % 1011,1 hPa 0,0 l/m 5,8 km/h (2 Bft) O 91 15 min 0,000 mm 0,0 UV-I 65 W/m -1,0 C 3,2 C 7,9 km/h (2 Bft) 0,00 %
15.02.2015 17:00 3,0 C 74 % 1011,3 hPa 0,0 l/m 2,2 km/h (1 Bft) O 100 0 min 0,000 mm 0,0 UV-I 28 W/m -1,2 C 3,0 C 4,0 km/h (1 Bft) 0,00 %
15.02.2015 17:15 2,8 C 74 % 1011,6 hPa 0,0 l/m 0,0 km/h (0 Bft) SO 128 0 min 0,000 mm 0,0 UV-I 5 W/m -1,4 C 2,8 C 0,0 km/h (0 Bft) 0,00 %
15.02.2015 17:30 2,1 C 73 % 1011,9 hPa 0,0 l/m 0,4 km/h (0 Bft) O-SO 113 0 min 0,000 mm 0,0 UV-I 0 W/m -2,2 C 2,1 C 4,0 km/h (1 Bft) 0,00 %
15.02.2015 17:45 2,0 C 74 % 1012,0 hPa 0,0 l/m 1,4 km/h (1 Bft) O 94 0 min 0,000 mm 0,0 UV-I 0 W/m -2,1 C 2,0 C 4,0 km/h (1 Bft) 0,00 %
15.02.2015 18:00 1,9 C 73 % 1012,3 hPa 0,0 l/m 0,0 km/h (0 Bft) S 186 0 min 0,000 mm 0,0 UV-I 0 W/m -2,4 C 1,9 C 0,0 km/h (0 Bft) 0,00 %
15.02.2015 18:15 1,4 C 76 % 1012,4 hPa 0,0 l/m 0,0 km/h (0 Bft) S 187 0 min 0,000 mm 0,0 UV-I 0 W/m -2,4 C 1,4 C 0,0 km/h (0 Bft) 0,00 %
15.02.2015 18:30 1,1 C 78 % 1012,6 hPa 0,0 l/m 0,0 km/h (0 Bft) S 190 0 min 0,000 mm 0,0 UV-I 0 W/m -2,3 C 1,1 C 0,0 km/h (0 Bft) 0,00 %
15.02.2015 18:45 0,7 C 79 % 1012,7 hPa 0,0 l/m 0,0 km/h (0 Bft) S-SW 194 0 min 0,000 mm 0,0 UV-I 0 W/m -2,5 C 0,7 C 0,0 km/h (0 Bft) 0,00 %
15.02.2015 19:00 0,3 C 80 % 1013,1 hPa 0,0 l/m 0,0 km/h (0 Bft) S-SW 193 0 min 0,000 mm 0,0 UV-I 0 W/m -2,7 C 0,3 C 0,0 km/h (0 Bft) 0,00 %
15.02.2015 19:15 -0,3 C 81 % 1013,3 hPa 0,0 l/m 0,0 km/h (0 Bft) S 181 0 min 0,000 mm 0,0 UV-I 0 W/m -3,2 C -0,3 C 0,0 km/h (0 Bft) 0,00 %
15.02.2015 19:30 -0,3 C 82 % 1013,4 hPa 0,0 l/m 0,0 km/h (0 Bft) S 182 0 min 0,000 mm 0,0 UV-I 0 W/m -3,0 C -0,3 C 0,0 km/h (0 Bft) 0,00 %
15.02.2015 19:45 -0,3 C 82 % 1013,4 hPa 0,0 l/m 0,0 km/h (0 Bft) S-SW 203 0 min 0,000 mm 0,0 UV-I 0 W/m -3,0 C -0,3 C 0,0 km/h (0 Bft) 0,00 %
15.02.2015 20:00 -0,4 C 83 % 1013,8 hPa 0,0 l/m 0,0 km/h (0 Bft) S 188 0 min 0,000 mm 0,0 UV-I 0 W/m -2,9 C -0,4 C 0,0 km/h (0 Bft) 0,00 %
15.02.2015 20:15 -0,6 C 83 % 1014,0 hPa 0,0 l/m 0,0 km/h (0 Bft) S-SW 206 0 min 0,000 mm 0,0 UV-I 0 W/m -3,1 C -0,6 C 0,0 km/h (0 Bft) 0,00 %
15.02.2015 20:30 -1,0 C 83 % 1014,5 hPa 0,0 l/m 0,0 km/h (0 Bft) S 187 0 min 0,000 mm 0,0 UV-I 0 W/m -3,5 C -1,0 C 0,0 km/h (0 Bft) 0,00 %
15.02.2015 20:45 -1,0 C 84 % 1014,5 hPa 0,0 l/m 0,0 km/h (0 Bft) S-SW 210 0 min 0,000 mm 0,0 UV-I 0 W/m -3,4 C -1,0 C 0,0 km/h (0 Bft) 0,00 %
15.02.2015 21:00 -1,1 C 84 % 1014,6 hPa 0,0 l/m 0,0 km/h (0 Bft) S 189 0 min 0,000 mm 0,0 UV-I 0 W/m -3,4 C -1,1 C 0,0 km/h (0 Bft) 0,00 %
15.02.2015 21:15 -0,6 C 84 % 1014,9 hPa 0,0 l/m 0,0 km/h (0 Bft) S 181 0 min 0,000 mm 0,0 UV-I 0 W/m -3,0 C -0,6 C 0,0 km/h (0 Bft) 0,00 %
15.02.2015 21:30 -0,3 C 84 % 1014,8 hPa 0,0 l/m 0,0 km/h (0 Bft) S-SW 203 0 min 0,000 mm 0,0 UV-I 0 W/m -2,7 C -0,3 C 0,0 km/h (0 Bft) 0,00 %
15.02.2015 21:45 -0,5 C 84 % 1014,9 hPa 0,0 l/m 0,0 km/h (0 Bft) S 181 0 min 0,000 mm 0,0 UV-I 0 W/m -2,9 C -0,5 C 0,0 km/h (0 Bft) 0,00 %
15.02.2015 22:00 -0,5 C 84 % 1015,0 hPa 0,0 l/m 0,0 km/h (0 Bft) S 188 0 min 0,000 mm 0,0 UV-I 0 W/m -2,9 C -0,5 C 0,0 km/h (0 Bft) 0,00 %
15.02.2015 22:15 -0,6 C 83 % 1015,2 hPa 0,0 l/m 0,0 km/h (0 Bft) S 177 0 min 0,000 mm 0,0 UV-I 0 W/m -3,1 C -0,6 C 0,0 km/h (0 Bft) 0,00 %
15.02.2015 22:30 -0,8 C 83 % 1015,3 hPa 0,0 l/m 0,0 km/h (0 Bft) SW 214 0 min 0,000 mm 0,0 UV-I 0 W/m -3,3 C -0,8 C 0,0 km/h (0 Bft) 0,00 %
15.02.2015 22:45 -1,5 C 84 % 1015,6 hPa 0,0 l/m 0,0 km/h (0 Bft) SW 223 0 min 0,000 mm 0,0 UV-I 0 W/m -3,8 C -1,5 C 0,0 km/h (0 Bft) 0,00 %
15.02.2015 23:00 -2,2 C 84 % 1016,0 hPa 0,0 l/m 0,0 km/h (0 Bft) S 180 0 min 0,000 mm 0,0 UV-I 0 W/m -4,5 C -2,2 C 0,0 km/h (0 Bft) 0,00 %
15.02.2015 23:15 -2,2 C 84 % 1016,0 hPa 0,0 l/m 0,0 km/h (0 Bft) SW 217 0 min 0,000 mm 0,0 UV-I 0 W/m -4,5 C -2,2 C 0,0 km/h (0 Bft) 0,00 %
15.02.2015 23:30 -2,5 C 80 % 1015,9 hPa 0,0 l/m 0,0 km/h (0 Bft) S 184 0 min 0,000 mm 0,0 UV-I 0 W/m -5,5 C -2,5 C 0,0 km/h (0 Bft) 0,00 %
15.02.2015 23:45 -2,9 C 80 % 1016,2 hPa 0,0 l/m 0,0 km/h (0 Bft) S 174 0 min 0,000 mm 0,0 UV-I 0 W/m -5,9 C -2,9 C 0,0 km/h (0 Bft) 0,00 %
_ Min-Zeit 00:00 12:45 14:45 - 00:00 - - - - - - 00:00 12:15 00:00 00:00
Minimum _ -4,8 C 69 % 1010,3 hPa - 0,0 km/h (0 Bft) - - - - - - -7,7 C -6,2 C 0,0 km/h (0 Bft) 0,00 %
_ Max-Zeit 16:00 03:15 23:45 00:00 12:15 - - 16:30 00:00 11:00 12:30 16:00 16:00 12:15 00:00
Maximum _ 3,2 C 84 % 1016,2 hPa 0,0 l/m 17,3 km/h
O (3 Bft)
- - 15 min 0,000 mm 2,0 UV-I 243 W/m -1,0 C 3,2 C 28,1 km/h
O (4 Bft)
0,00 %
Durchschnitt _ -0,5 C 79 % 1012,3 hPa #0,0 l/m 2,5 km/h (1 Bft) O-SO - #30 min. #0,000 mm 1,5 UV-I 121 W/m -3,7 C -1,0 C 4,0 km/h (1 Bft) 0,00 %